星链-31726 (STARLINK-31726 )

导读

STARLINK-31726是美国SpaceX星链星座的卫星,于2024年5月13日发射入轨。星链是美国打造的低轨卫星互联网星座,该卫星承担为全球提供高速互联网接入服务的任务,尤其为偏远地区等网络覆盖不足区域提供连接支持,加入后进一步扩充了星链星座的服务覆盖范围与网络容量。

基本信息
目录编号:
59739
目录名称:
STARLINK-31726
国际标识:
2024-090K
轨道中心:
EARTH
卫星名称:
星链-31726
卫星全名:
星链-31726 (STARLINK-31726 )
卫星状态:
在轨 (已飞行844 天)
发射日期:
2024-05-13 UTC
国别 :
美国 (US)
星等 :
--
轨道信息
数据来源 国际轨道数据
星历时间: 2026-09-03T09:59:02+0800
1天前
查看轨道信息
半长轴: 6861.209km
偏心率: 0.0001238
轨道倾角: 43.002°
近地点辐角 273.236°
升交点赤经 261.368°
平近点角 86.835°
近地点: 482.222km
远地点: 483.922km
周期: 94.267分钟
每日圈数: 15.275726
详细信息
固有亮度:
5
最大亮度:
1.5
卫星平台:
Starlink v2.0 mini
覆盖范围:
全球
运营商:
太空探索技术公司
运营商所在国:
美国
制造商(研发单位):
太空探索技术公司
制造商所在国:
美国
使用方式:
暂无
卫星简介
星链(Starlink)计划是由太空探索技术公司(SpaceX)提出的一个巨型低轨卫星互联网星座项目,计划在2019年至2024年间在太空搭建由约1.2万颗卫星组成的“星链”网络,其中1584颗将部署在地球上空550千米处的近地轨道,并从2020年开始工作。该卫星仍在工作。
2D轨道图
3D轨道图
轨道高度分析图
轨道倾角分析图
轨道综合分析图
查看轨道综合分析图
交会数据列表
事件ID 空间交会对象 最接近时刻(TCA) 交会距离 交会风险概率(CRP) 交会风险指数(CRI) 操作
CDM_260904-200805-973906-192021
2026-09-04T
20:08:16+0000
0.891 km
远距离
2.578517E-5 中风险 0.63
CDM_260904-183405-973906-192021
2026-09-04T
18:34:06+0000
1.511 km
极远距离
4.28356E-6 低风险 0.48
CDM_260903-173804-117305-973923
DAMPE (41173)
2026-09-03T
17:38:58+0000
1.513 km
极远距离
3.938475E-6 低风险 0.47
CDM_260903-222605-864505-973922
2026-09-03T
22:26:27+0000
1.556 km
极远距离
3.629245E-6 低风险 0.46
CDM_260904-214205-973906-192021
2026-09-04T
21:42:25+0000
2.550 km
极远距离
1.172926E-6 低风险 0.36
CDM_260905-041705-864805-973921
2026-09-05T
04:17:41+0000
2.878 km
极远距离
9.401112E-7 极低风险 0.34